• In Hungary
  • List of Countries
  • For 7 days
  • Water Temperature
  • Satellite Maps
  • Weather Map
  • News
  • Weather Widgets
  • user-avatar
    Login

    Hourly Weather Bolshie Ostrogi

    Today, 22 October, Monday

    Time Temperature Precipitation Wind Pressure Humidity
    00:00 +4°C° 0 mm 1 mps 752 mmHg 85%
    01:00 +4°C° 0 mm 1 mps 751 mmHg 86%
    02:00 +3°C° 0 mm 1 mps 751 mmHg 87%
    03:00 +3°C° 0 mm 1 mps 751 mmHg 88%
    04:00 +3°C° 0 mm 1 mps 751 mmHg 89%
    05:00 +3°C° 0 mm 1 mps 751 mmHg 90%
    06:00 +2°C° 0 mm 2 mps 750 mmHg 88%
    07:00 +2°C° 0 mm 2 mps 750 mmHg 87%
    08:00 +3°C° 0 mm 2 mps 750 mmHg 85%
    09:00 +4°C° 0 mm 2 mps 750 mmHg 79%
    10:00 +5°C° 0 mm 3 mps 749 mmHg 73%
    11:00 +7°C° 0 mm 3 mps 749 mmHg 67%
    12:00 +7°C° 0 mm 4 mps 748 mmHg 65%
    13:00 +7°C° 0 mm 4 mps 748 mmHg 63%
    14:00 +8°C° 0 mm 4 mps 747 mmHg 62%
    15:00 +7°C° 0 mm 4 mps 746 mmHg 67%
    16:00 +6°C° 0 mm 4 mps 746 mmHg 71%
    17:00 +5°C° 0 mm 3 mps 745 mmHg 76%
    18:00 +4°C° 0 mm 3 mps 745 mmHg 78%
    19:00 +4°C° 0 mm 4 mps 744 mmHg 79%
    20:00 +4°C° 0 mm 4 mps 744 mmHg 80%
    21:00 +3°C° 0 mm 4 mps 743 mmHg 83%
    22:00 +3°C° 0 mm 4 mps 743 mmHg 85%
    23:00 +3°C° 0 mm 4 mps 742 mmHg 87%

    Tomorrow, 23 October, Tuesday

    Time Temperature Precipitation Wind Pressure Humidity
    00:00 +3°C° 0.2 mm 4 mps 742 mmHg 88%
    01:00 +3°C° 0.2 mm 4 mps 741 mmHg 90%
    02:00 +3°C° 0.2 mm 4 mps 741 mmHg 91%
    03:00 +3°C° 0.7 mm 4 mps 740 mmHg 92%
    04:00 +4°C° 0.7 mm 4 mps 740 mmHg 93%
    05:00 +4°C° 0.7 mm 3 mps 739 mmHg 94%
    06:00 +4°C° 0.1 mm 3 mps 739 mmHg 94%
    07:00 +4°C° 0.1 mm 3 mps 739 mmHg 93%
    08:00 +3°C° 0.1 mm 3 mps 739 mmHg 93%
    09:00 +4°C° 0 mm 3 mps 739 mmHg 85%
    10:00 +5°C° 0 mm 3 mps 739 mmHg 78%
    11:00 +7°C° 0 mm 3 mps 738 mmHg 71%
    12:00 +7°C° 0 mm 3 mps 738 mmHg 68%
    13:00 +7°C° 0 mm 3 mps 737 mmHg 66%
    14:00 +7°C° 0 mm 2 mps 736 mmHg 63%
    15:00 +7°C° 0 mm 2 mps 735 mmHg 67%
    16:00 +6°C° 0 mm 2 mps 735 mmHg 71%
    17:00 +5°C° 0 mm 2 mps 734 mmHg 76%
    18:00 +3°C° 0 mm 3 mps 733 mmHg 77%
    19:00 +3°C° 0 mm 3 mps 732 mmHg 79%
    20:00 +1°C° 0 mm 4 mps 731 mmHg 81%
    21:00 +1°C° 0 mm 4 mps 730 mmHg 82%
    22:00 +1°C° 0 mm 5 mps 729 mmHg 82%
    23:00 +1°C° 0 mm 5 mps 728 mmHg 83%

    Day after tomorrow, 24 October, Wednesday

    Time Temperature Precipitation Wind Pressure Humidity
    00:00 +1°C° 0.2 mm 6 mps 726 mmHg 84%
    01:00 +1°C° 0.2 mm 6 mps 725 mmHg 85%
    02:00 +2°C° 0.2 mm 7 mps 724 mmHg 85%
    03:00 +2°C° 0.5 mm 7 mps 722 mmHg 86%
    04:00 +2°C° 0.5 mm 7 mps 721 mmHg 86%
    05:00 +2°C° 0.5 mm 7 mps 720 mmHg 86%
    06:00 +2°C° 0.3 mm 7 mps 719 mmHg 87%
    07:00 +2°C° 0.3 mm 6 mps 719 mmHg 87%
    08:00 +2°C° 0.3 mm 5 mps 718 mmHg 88%
    09:00 +3°C° 0.2 mm 5 mps 718 mmHg 87%
    10:00 +4°C° 0.2 mm 4 mps 718 mmHg 87%
    11:00 +4°C° 0.2 mm 3 mps 718 mmHg 87%
    12:00 +5°C° 0.3 mm 3 mps 718 mmHg 87%
    13:00 +6°C° 0.3 mm 2 mps 719 mmHg 87%
    14:00 +6°C° 0.3 mm 2 mps 719 mmHg 88%
    15:00 +6°C° 0.2 mm 2 mps 719 mmHg 89%
    16:00 +5°C° 0.2 mm 2 mps 720 mmHg 91%
    17:00 +5°C° 0.2 mm 2 mps 720 mmHg 92%
    18:00 +5°C° 0.1 mm 2 mps 720 mmHg 92%
    19:00 +4°C° 0.1 mm 2 mps 721 mmHg 93%
    20:00 +3°C° 0.1 mm 3 mps 721 mmHg 93%
    21:00 +3°C° 0.1 mm 3 mps 722 mmHg 92%
    22:00 +3°C° 0.1 mm 4 mps 722 mmHg 91%
    23:00 +3°C° 0.1 mm 4 mps 722 mmHg 91%

    25 October, Thursday

    Time Temperature Precipitation Wind Pressure Humidity
    00:00 +2°C° 0.4 mm 5 mps 723 mmHg 90%
    01:00 +2°C° 0.4 mm 6 mps 723 mmHg 89%
    02:00 +2°C° 0.4 mm 6 mps 724 mmHg 87%
    03:00 +2°C° 0.5 mm 7 mps 724 mmHg 87%
    04:00 +2°C° 0.5 mm 7 mps 725 mmHg 87%
    05:00 +2°C° 0.5 mm 7 mps 725 mmHg 86%
    06:00 +1°C° 0.3 mm 8 mps 725 mmHg 85%
    07:00 0°C° 0.3 mm 8 mps 726 mmHg 84%
    08:00 0°C° 0.3 mm 8 mps 726 mmHg 83%
    09:00 0°C° 0 mm 8 mps 726 mmHg 81%
    10:00 +1°C° 0 mm 8 mps 727 mmHg 79%
    11:00 +1°C° 0 mm 8 mps 727 mmHg 76%
    12:00 +1°C° 0 mm 8 mps 727 mmHg 74%
    13:00 +1°C° 0 mm 8 mps 727 mmHg 71%
    14:00 +2°C° 0 mm 8 mps 727 mmHg 68%
    15:00 +1°C° 0 mm 8 mps 728 mmHg 72%
    16:00 +2°C° 0 mm 7 mps 728 mmHg 75%
    17:00 +1°C° 0 mm 6 mps 728 mmHg 78%
    18:00 +1°C° 0 mm 6 mps 729 mmHg 79%
    19:00 +1°C° 0 mm 5 mps 729 mmHg 79%
    20:00 +1°C° 0 mm 5 mps 729 mmHg 80%
    21:00 +1°C° 0 mm 5 mps 729 mmHg 83%
    22:00 +1°C° 0 mm 5 mps 729 mmHg 85%
    23:00 +1°C° 0 mm 4 mps 729 mmHg 88%

    26 October, Friday

    Time Temperature Precipitation Wind Pressure Humidity
    00:00 0°C° 0 mm 4 mps 730 mmHg 90%
    01:00 0°C° 0 mm 4 mps 730 mmHg 92%
    02:00 0°C° 0 mm 3 mps 730 mmHg 95%
    03:00 0°C° 0 mm 3 mps 730 mmHg 94%
    04:00 0°C° 0 mm 3 mps 731 mmHg 94%
    05:00 0°C° 0 mm 3 mps 731 mmHg 94%
    06:00 0°C° 0 mm 3 mps 731 mmHg 93%
    07:00 0°C° 0 mm 3 mps 732 mmHg 92%
    08:00 0°C° 0 mm 3 mps 732 mmHg 90%
    09:00 0°C° 0 mm 4 mps 733 mmHg 85%
    10:00 +3°C° 0 mm 4 mps 733 mmHg 80%
    11:00 +4°C° 0 mm 4 mps 734 mmHg 75%
    12:00 +4°C° 0 mm 4 mps 734 mmHg 74%
    13:00 +5°C° 0 mm 4 mps 734 mmHg 73%
    14:00 +5°C° 0 mm 4 mps 734 mmHg 72%
    15:00 +5°C° 0 mm 4 mps 735 mmHg 76%
    16:00 +4°C° 0 mm 4 mps 735 mmHg 80%
    17:00 +3°C° 0 mm 3 mps 735 mmHg 84%
    18:00 +3°C° 0 mm 3 mps 735 mmHg 87%
    19:00 +2°C° 0 mm 3 mps 735 mmHg 89%
    20:00 +2°C° 0 mm 3 mps 735 mmHg 91%
    21:00 +1°C° 0.1 mm 4 mps 735 mmHg 90%
    22:00 +2°C° 0.1 mm 5 mps 735 mmHg 89%
    23:00 +2°C° 0.1 mm 5 mps 735 mmHg 87%

    27 October, Saturday

    Time Temperature Precipitation Wind Pressure Humidity
    00:00 +3°C° 0.3 mm 5 mps 735 mmHg 88%
    01:00 +4°C° 0.3 mm 6 mps 735 mmHg 89%
    02:00 +5°C° 0.3 mm 6 mps 735 mmHg 90%
    03:00 +5°C° 0.1 mm 6 mps 735 mmHg 89%
    04:00 +5°C° 0.1 mm 6 mps 735 mmHg 89%
    05:00 +5°C° 0.1 mm 6 mps 735 mmHg 88%
    06:00 +5°C° 0.1 mm 6 mps 735 mmHg 88%
    07:00 +5°C° 0.1 mm 6 mps 735 mmHg 88%
    08:00 +7°C° 0.1 mm 6 mps 736 mmHg 88%
    09:00 +7°C° 0.1 mm 6 mps 736 mmHg 86%
    10:00 +8°C° 0.1 mm 6 mps 736 mmHg 84%
    11:00 +8°C° 0.1 mm 6 mps 736 mmHg 82%
    12:00 +8°C° 0 mm 5 mps 736 mmHg 81%
    13:00 +8°C° 0 mm 5 mps 736 mmHg 81%
    14:00 +8°C° 0 mm 4 mps 737 mmHg 80%
    15:00 +8°C° 0 mm 4 mps 737 mmHg 82%
    16:00 +8°C° 0 mm 3 mps 737 mmHg 84%
    17:00 +8°C° 0 mm 2 mps 737 mmHg 86%
    18:00 +8°C° 0 mm 2 mps 737 mmHg 87%
    19:00 +8°C° 0 mm 2 mps 737 mmHg 89%
    20:00 +7°C° 0 mm 2 mps 737 mmHg 90%
    21:00 +7°C° 0.1 mm 2 mps 737 mmHg 91%
    22:00 +7°C° 0.1 mm 3 mps 737 mmHg 91%
    23:00 +7°C° 0.1 mm 3 mps 736 mmHg 92%

    28 October, Sunday

    Time Temperature Precipitation Wind Pressure Humidity
    00:00 +7°C° 1.3 mm 4 mps 736 mmHg 93%
    01:00 +8°C° 1.3 mm 4 mps 735 mmHg 93%
    02:00 +8°C° 1.3 mm 5 mps 735 mmHg 94%
    03:00 +9°C° 0.8 mm 5 mps 735 mmHg 92%
    04:00 +9°C° 0.8 mm 6 mps 734 mmHg 90%
    05:00 +9°C° 0.8 mm 6 mps 734 mmHg 88%
    06:00 +10°C° 1 mm 6 mps 734 mmHg 88%
    07:00 +10°C° 1 mm 6 mps 734 mmHg 88%
    08:00 +10°C° 1 mm 6 mps 735 mmHg 88%
    09:00 +10°C° 0.6 mm 6 mps 735 mmHg 87%
    10:00 +10°C° 0.6 mm 6 mps 735 mmHg 86%
    11:00 +10°C° 0.6 mm 6 mps 736 mmHg 86%
    12:00 +10°C° 0.4 mm 5 mps 736 mmHg 86%
    13:00 +12°C° 0.4 mm 5 mps 736 mmHg 86%
    14:00 +12°C° 0.4 mm 4 mps 737 mmHg 86%
    15:00 +11°C° 0.6 mm 4 mps 737 mmHg 88%
    16:00 +11°C° 0.6 mm 4 mps 737 mmHg 89%
    17:00 +11°C° 0.6 mm 4 mps 737 mmHg 91%
    18:00 +11°C° 1.1 mm 4 mps 737 mmHg 91%
    19:00 +10°C° 1.1 mm 4 mps 737 mmHg 91%
    20:00 +10°C° 1.1 mm 3 mps 737 mmHg 92%
    21:00 +9°C° 0.2 mm 3 mps 738 mmHg 92%
    22:00 +9°C° 0.2 mm 3 mps 738 mmHg 92%
    23:00 +8°C° 0.2 mm 3 mps 738 mmHg 92%
    Show more